This is the latest recevied weather packets stored in our database for station/object IK2ILW-6. If no packets are shown the sender has not sent any weather packets the latest 10 day(s).
| Time | Temp. | Humidity | Pressure | Rain* | Wind** | Luminosity | Snow |
|---|---|---|---|---|---|---|---|
| 1777342291 | 6.67° C | 95% | 1018.8 hPa | 0 mm | - | 0 W/m² | - |
| 1777341996 | 6.67° C | 95% | 1018.8 hPa | 0 mm | - | 0 W/m² | - |
| 1777341700 | 6.67° C | 95% | 1018.9 hPa | 0 mm | - | 0 W/m² | - |
| 1777341384 | 6.67° C | 94% | 1018.9 hPa | 0 mm | - | 0 W/m² | - |
| 1777341090 | 6.67° C | 94% | 1018.8 hPa | 1.02 mm | - | 0 W/m² | - |
| 1777340795 | 6.67° C | 95% | 1019 hPa | 1.02 mm | - | 0 W/m² | - |
| 1777340499 | 6.67° C | 94% | 1019 hPa | 1.02 mm | - | 0 W/m² | - |
| 1777340183 | 6.67° C | 94% | 1019 hPa | 1.02 mm | - | 0 W/m² | - |
| 1777339891 | 6.67° C | 94% | 1019 hPa | 1.02 mm | - | 0 W/m² | - |
| 1777339595 | 6.67° C | 94% | 1019.1 hPa | 1.02 mm | - | 0 W/m² | - |
| 1777339299 | 6.67° C | 94% | 1019.1 hPa | 1.02 mm | - | 0 W/m² | - |
| 1777338983 | 6.67° C | 94% | 1019.1 hPa | 1.02 mm | - | 0 W/m² | - |
| 1777338686 | 6.67° C | 94% | 1019.1 hPa | 2.03 mm | - | 0 W/m² | - |
| 1777338391 | 6.67° C | 94% | 1019.2 hPa | 10.92 mm | - | 0 W/m² | - |
| 1777338095 | 6.67° C | 94% | 1019.2 hPa | 13.97 mm | - | 0 W/m² | - |
| 1777337798 | 6.67° C | 94% | 1019.3 hPa | 13.97 mm | - | 0 W/m² | - |
| 1777337482 | 6.67° C | 94% | 1019.2 hPa | 12.95 mm | - | 0 W/m² | - |
| 1777337188 | 6.67° C | 93% | 1019.3 hPa | 12.95 mm | - | 0 W/m² | - |
| 1777336891 | 6.67° C | 93% | 1019.3 hPa | 12.95 mm | - | 0 W/m² | - |
| 1777336599 | 6.67° C | 92% | 1019.4 hPa | 12.95 mm | - | 0 W/m² | - |
| 1777336283 | 6.67° C | 92% | 1019.4 hPa | 12.95 mm | - | 0 W/m² | - |
| 1777335987 | 6.67° C | 91% | 1019.4 hPa | 12.95 mm | - | 0 W/m² | - |
| 1777335691 | 6.67° C | 90% | 1019.4 hPa | 12.95 mm | - | 0 W/m² | - |
| 1777335395 | 6.67° C | 89% | 1019.5 hPa | 12.95 mm | - | 0 W/m² | - |
| 1777335099 | 6.67° C | 92% | 1019.6 hPa | 11.94 mm | - | 0 W/m² | - |
* Rain latest hour (hover to see other rain measurements)
** Current wind speed in m/s (hover to see current wind gust speed)